RFF9986 OSLK-HL59

Flight info

Callsign RFF9986
Flight time 2h 13m
Altitude 34000
Route K0850F340 DCT BAN R785 NIKAS M978 ALSUS N71 VELOX N159 APLON M28 RASDA M855 LOSUL A411 MKILY DCT
Aircraft T154/M-VGD/A

Departure

Time 2026-04-21 07:46
Airport Latakia International Airport (OSLK)

Arrival

Time 2026-04-21 09:59
Airport Al Khadim Airport (HL59)
Time Latitude Longitude Altitude Speed Heading
2026-04-21 07:02 35.40638 35.94484 176 ft 0 kts 355°
2026-04-21 07:38 35.40646 35.94484 176 ft 2 kts 355°
2026-04-21 07:38 35.40669 35.94481 176 ft 0 kts 354°
2026-04-21 07:40 35.40670 35.94481 176 ft 0 kts
2026-04-21 07:40 35.40683 35.94493 176 ft 2 kts 55°
2026-04-21 07:40 35.40689 35.94513 176 ft 2 kts 76°
2026-04-21 07:41 35.40691 35.94528 176 ft 2 kts 77°
2026-04-21 07:41 35.40710 35.94571 176 ft 8 kts 47°
2026-04-21 07:41 35.40733 35.94651 176 ft 11 kts 87°
2026-04-21 07:41 35.40746 35.94754 176 ft 13 kts 52°
2026-04-21 07:42 35.40831 35.94778 176 ft 12 kts 358°
2026-04-21 07:42 35.40989 35.94767 176 ft 31 kts 356°
2026-04-21 07:42 35.41203 35.94751 176 ft 29 kts 356°
2026-04-21 07:42 35.41339 35.94749 176 ft 13 kts 25°
2026-04-21 07:43 35.41372 35.94843 176 ft 12 kts 88°
2026-04-21 07:43 35.41367 35.94936 176 ft 8 kts 120°
2026-04-21 07:43 35.41321 35.94957 176 ft 5 kts 175°
2026-04-21 07:43 35.41316 35.94957 176 ft 0 kts 175°
2026-04-21 07:45 35.41188 35.94968 176 ft 54 kts 176°
2026-04-21 07:45 35.40544 35.95014 177 ft 129 kts 176°
2026-04-21 07:45 35.39456 35.95089 330 ft 174 kts 176°
2026-04-21 07:46 35.38287 35.95151 1125 ft 168 kts 176°
2026-04-21 07:46 35.37156 35.94932 1608 ft 182 kts 211°
2026-04-21 07:46 35.36325 35.93732 1908 ft 206 kts 250°
2026-04-21 07:46 35.36126 35.91880 2226 ft 242 kts 267°
2026-04-21 07:47 35.36026 35.89722 3069 ft 260 kts 268°
2026-04-21 07:47 35.35952 35.87550 4216 ft 265 kts 268°
2026-04-21 07:47 35.35881 35.85296 5387 ft 267 kts 269°
2026-04-21 07:47 35.36158 35.83084 6413 ft 268 kts 289°
2026-04-21 07:48 35.37071 35.81080 7086 ft 274 kts 312°
2026-04-21 07:48 35.38550 35.79613 7844 ft 277 kts 333°
2026-04-21 07:48 35.40313 35.78976 8989 ft 260 kts 357°
2026-04-21 07:48 35.42017 35.78937 10041 ft 249 kts 358°
2026-04-21 07:49 35.43811 35.78834 10606 ft 254 kts 356°
2026-04-21 07:49 35.45556 35.78703 11216 ft 260 kts 356°
2026-04-21 07:49 35.47335 35.78563 11963 ft 258 kts 356°
2026-04-21 07:49 35.49136 35.78751 12571 ft 261 kts 18°
2026-04-21 07:50 35.50738 35.79756 13171 ft 264 kts 40°
2026-04-21 07:50 35.51922 35.81456 13784 ft 265 kts 62°
2026-04-21 07:50 35.52509 35.83603 14346 ft 269 kts 84°
2026-04-21 07:50 35.52627 35.85886 14884 ft 274 kts 86°
2026-04-21 07:51 35.52745 35.88280 15205 ft 288 kts 90°
2026-04-21 07:51 35.52416 35.90715 15637 ft 296 kts 111°
2026-04-21 07:51 35.51405 35.92923 16133 ft 301 kts 130°
2026-04-21 07:51 35.49777 35.94506 16620 ft 306 kts 163°
2026-04-21 07:52 35.47669 35.94915 17160 ft 308 kts 176°
2026-04-21 07:52 35.45534 35.94957 17640 ft 314 kts 183°
2026-04-21 07:52 35.43340 35.94697 18162 ft 319 kts 189°
2026-04-21 07:52 35.41145 35.94147 18695 ft 323 kts 194°
2026-04-21 07:53 35.39005 35.93342 19237 ft 326 kts 200°
2026-04-21 07:53 35.36881 35.92292 19791 ft 329 kts 204°
2026-04-21 07:53 35.34823 35.91049 20337 ft 331 kts 208°
2026-04-21 07:53 35.32830 35.89656 20878 ft 333 kts 211°
2026-04-21 07:54 35.30896 35.88090 21206 ft 343 kts 219°
2026-04-21 07:54 35.29184 35.85922 21191 ft 360 kts 231°
2026-04-21 07:54 35.27610 35.83520 21541 ft 368 kts 231°
2026-04-21 07:54 35.25964 35.81057 21924 ft 374 kts 230°
2026-04-21 07:55 35.24290 35.78634 22400 ft 377 kts 229°
2026-04-21 07:55 35.22555 35.76179 22868 ft 381 kts 229°
2026-04-21 07:55 35.20826 35.73753 23361 ft 382 kts 229°
2026-04-21 07:55 35.19183 35.71169 23856 ft 383 kts 239°
2026-04-21 07:56 35.18111 35.68200 24252 ft 387 kts 255°
2026-04-21 07:56 35.17691 35.64982 24700 ft 389 kts 266°
2026-04-21 07:56 35.17504 35.61629 25077 ft 393 kts 265°
2026-04-21 07:56 35.17231 35.58320 25517 ft 395 kts 263°
2026-04-21 07:57 35.16848 35.54979 25956 ft 397 kts 261°
2026-04-21 07:57 35.16403 35.51644 26328 ft 401 kts 261°
2026-04-21 07:57 35.15930 35.48307 26758 ft 402 kts 260°
2026-04-21 07:57 35.15463 35.45076 27116 ft 405 kts 260°
2026-04-21 07:58 35.14967 35.41682 27514 ft 407 kts 260°
2026-04-21 07:58 35.14480 35.38385 27877 ft 410 kts 260°
2026-04-21 07:58 35.13966 35.34909 28262 ft 412 kts 259°
2026-04-21 07:58 35.13455 35.31452 28627 ft 414 kts 259°
2026-04-21 07:59 35.12930 35.27911 28989 ft 417 kts 259°
2026-04-21 07:59 35.12407 35.24396 29362 ft 419 kts 259°
2026-04-21 07:59 35.11863 35.20753 29704 ft 421 kts 259°
2026-04-21 07:59 35.11314 35.17084 30077 ft 423 kts 259°
2026-04-21 08:00 35.10786 35.13555 30395 ft 425 kts 259°
2026-04-21 08:00 35.10258 35.10039 30724 ft 427 kts 259°
2026-04-21 08:00 35.09737 35.06545 31023 ft 429 kts 259°
2026-04-21 08:00 35.09207 35.03006 31337 ft 431 kts 259°
2026-04-21 08:01 35.08667 34.99414 31625 ft 433 kts 259°
2026-04-21 08:01 35.08109 34.95743 31924 ft 435 kts 259°
2026-04-21 08:01 35.07543 34.92003 32213 ft 437 kts 259°
2026-04-21 08:02 35.06419 34.84656 32746 ft 441 kts 259°
2026-04-21 08:02 35.05866 34.81042 33007 ft 442 kts 259°
2026-04-21 08:02 35.05318 34.77426 33246 ft 444 kts 259°
2026-04-21 08:02 35.04760 34.73766 33473 ft 446 kts 259°
2026-04-21 08:03 35.03968 34.70034 33754 ft 445 kts 249°
2026-04-21 08:03 35.02496 34.66561 33894 ft 447 kts 235°
2026-04-21 08:03 35.00374 34.63590 34091 ft 448 kts 222°
2026-04-21 08:03 34.97725 34.61298 34210 ft 449 kts 208°
2026-04-21 08:04 34.94768 34.59841 34118 ft 451 kts 195°
2026-04-21 08:04 34.88624 34.58162 34006 ft 454 kts 195°
2026-04-21 08:05 34.82867 34.55895 34008 ft 454 kts 200°
2026-04-21 08:05 34.76988 34.53212 34004 ft 455 kts 201°
2026-04-21 08:06 34.71032 34.50427 34006 ft 455 kts 201°
2026-04-21 08:06 34.65069 34.47636 34007 ft 455 kts 201°
2026-04-21 08:07 34.59092 34.44843 34009 ft 455 kts 201°
2026-04-21 08:07 34.53527 34.42247 34009 ft 456 kts 201°
2026-04-21 08:08 34.47546 34.39460 34010 ft 456 kts 201°
2026-04-21 08:08 34.41457 34.36607 34013 ft 456 kts 202°
2026-04-21 08:09 34.35350 34.33683 34002 ft 456 kts 201°
2026-04-21 08:09 34.29317 34.30788 34000 ft 456 kts 201°
2026-04-21 08:10 34.23232 34.27896 34005 ft 456 kts 201°
2026-04-21 08:10 34.17171 34.25028 34005 ft 457 kts 201°
2026-04-21 08:11 34.11126 34.22172 34006 ft 457 kts 201°
2026-04-21 08:11 34.05314 34.19432 34006 ft 457 kts 201°
2026-04-21 08:12 33.99526 34.16705 34008 ft 457 kts 201°
2026-04-21 08:12 33.93710 34.13969 34005 ft 457 kts 201°
2026-04-21 08:13 33.88195 34.11274 34012 ft 456 kts 208°
2026-04-21 08:13 33.85636 34.09229 34078 ft 454 kts 220°
2026-04-21 08:13 33.83487 34.06552 34060 ft 453 kts 233°
2026-04-21 08:13 33.81880 34.03386 34062 ft 453 kts 245°
2026-04-21 08:14 33.80885 33.99887 34062 ft 452 kts 258°
2026-04-21 08:14 33.80544 33.96226 34061 ft 452 kts 270°
2026-04-21 08:14 33.80865 33.92580 34064 ft 452 kts 282°
2026-04-21 08:15 33.82039 33.85269 34038 ft 453 kts 277°
2026-04-21 08:15 33.82565 33.77857 34012 ft 455 kts 273°
2026-04-21 08:16 33.82838 33.70435 34003 ft 456 kts 272°
2026-04-21 08:16 33.83069 33.62940 34002 ft 456 kts 272°
2026-04-21 08:17 33.83290 33.55495 34041 ft 456 kts 272°
2026-04-21 08:17 33.83501 33.47995 34034 ft 457 kts 272°
2026-04-21 08:18 33.83708 33.40535 34032 ft 457 kts 272°
2026-04-21 08:18 33.83910 33.33057 34014 ft 458 kts 271°
2026-04-21 08:19 33.84109 33.25499 34032 ft 457 kts 271°
2026-04-21 08:19 33.84302 33.17998 34035 ft 458 kts 271°
2026-04-21 08:20 33.84489 33.10595 34033 ft 458 kts 271°
2026-04-21 08:20 33.84674 33.03081 34036 ft 458 kts 271°
2026-04-21 08:21 33.84855 32.95579 34030 ft 458 kts 271°
2026-04-21 08:21 33.85031 32.88074 34033 ft 458 kts 271°
2026-04-21 08:22 33.85203 32.80577 34031 ft 458 kts 271°
2026-04-21 08:22 33.85370 32.73030 34030 ft 458 kts 271°
2026-04-21 08:23 33.85532 32.65535 34033 ft 458 kts 271°
2026-04-21 08:23 33.85690 32.58038 34037 ft 458 kts 271°
2026-04-21 08:24 33.85843 32.50526 34036 ft 458 kts 271°
2026-04-21 08:24 33.85992 32.43028 34038 ft 458 kts 271°
2026-04-21 08:25 33.86135 32.35544 34035 ft 459 kts 271°
2026-04-21 08:25 33.86275 32.28006 34037 ft 459 kts 271°
2026-04-21 08:26 33.86410 32.20453 34032 ft 459 kts 271°
2026-04-21 08:26 33.86540 32.12956 34035 ft 459 kts 271°
2026-04-21 08:27 33.85979 32.05559 34103 ft 456 kts 252°
2026-04-21 08:27 33.84757 32.02150 34086 ft 455 kts 239°
2026-04-21 08:27 33.82927 31.99161 34094 ft 454 kts 226°
2026-04-21 08:28 33.78455 31.93929 34059 ft 456 kts 226°
2026-04-21 08:28 33.74305 31.88361 34045 ft 457 kts 230°
2026-04-21 08:29 33.70321 31.82591 34034 ft 458 kts 231°
2026-04-21 08:29 33.66342 31.76756 34031 ft 458 kts 231°
2026-04-21 08:30 33.62404 31.70983 34034 ft 459 kts 231°
2026-04-21 08:30 33.58430 31.65167 34031 ft 459 kts 231°
2026-04-21 08:31 33.54458 31.59364 34031 ft 459 kts 231°
2026-04-21 08:31 33.50473 31.53551 34035 ft 459 kts 231°
2026-04-21 08:32 33.46491 31.47750 34035 ft 459 kts 231°
2026-04-21 08:32 33.42505 31.41954 34032 ft 460 kts 231°
2026-04-21 08:33 33.38525 31.36177 34032 ft 460 kts 231°
2026-04-21 08:33 33.34533 31.30370 34036 ft 460 kts 230°
2026-04-21 08:34 33.30553 31.24590 34033 ft 460 kts 230°
2026-04-21 08:34 33.26559 31.18814 34029 ft 460 kts 230°
2026-04-21 08:35 33.22572 31.13062 34033 ft 460 kts 230°
2026-04-21 08:35 33.18636 31.07393 34035 ft 460 kts 230°
2026-04-21 08:36 33.14623 31.01623 34037 ft 460 kts 230°
2026-04-21 08:36 33.10630 30.95888 34034 ft 460 kts 230°
2026-04-21 08:37 33.06599 30.90175 34033 ft 460 kts 230°
2026-04-21 08:37 33.02505 30.84447 34030 ft 460 kts 230°
2026-04-21 08:38 32.98456 30.78777 34051 ft 460 kts 230°
2026-04-21 08:38 32.94396 30.73095 34091 ft 460 kts 230°
2026-04-21 08:39 32.90334 30.67418 34089 ft 460 kts 230°
2026-04-21 08:39 32.86439 30.62016 34098 ft 460 kts 229°
2026-04-21 08:40 32.82172 30.56096 34097 ft 460 kts 230°
2026-04-21 08:40 32.77851 30.50089 34095 ft 460 kts 230°
2026-04-21 08:41 32.73643 30.44246 34092 ft 461 kts 230°
2026-04-21 08:41 32.69434 30.38410 34096 ft 461 kts 230°
2026-04-21 08:42 32.65226 30.32577 34078 ft 461 kts 229°
2026-04-21 08:42 32.61058 30.26788 34091 ft 461 kts 229°
2026-04-21 08:43 32.56859 30.20985 34092 ft 461 kts 229°
2026-04-21 08:43 32.52644 30.15177 34094 ft 461 kts 229°
2026-04-21 08:44 32.48415 30.09359 34091 ft 461 kts 229°
2026-04-21 08:44 32.44006 30.03302 34095 ft 461 kts 229°
2026-04-21 08:45 32.39655 29.97333 34089 ft 462 kts 229°
2026-04-21 08:45 32.35385 29.91486 34087 ft 462 kts 229°
2026-04-21 08:46 32.31148 29.85693 34086 ft 462 kts 229°
2026-04-21 08:46 32.26906 29.79902 34090 ft 462 kts 229°
2026-04-21 08:47 32.22693 29.74159 34091 ft 462 kts 229°
2026-04-21 08:47 32.18479 29.68424 34093 ft 462 kts 229°
2026-04-21 08:48 32.14227 29.62646 34091 ft 462 kts 229°
2026-04-21 08:48 32.09936 29.56824 34090 ft 462 kts 229°
2026-04-21 08:49 32.05633 29.50995 34087 ft 462 kts 229°
2026-04-21 08:49 32.01397 29.45265 34091 ft 462 kts 229°
2026-04-21 08:50 31.97007 29.39335 34090 ft 462 kts 229°
2026-04-21 08:50 31.92710 29.33532 34072 ft 463 kts 229°
2026-04-21 08:51 31.88378 29.27673 34075 ft 463 kts 229°
2026-04-21 08:51 31.84010 29.21826 34092 ft 463 kts 229°
2026-04-21 08:52 31.79731 29.16087 34091 ft 463 kts 229°
2026-04-21 08:52 31.75439 29.10333 34091 ft 463 kts 229°
2026-04-21 08:53 31.71782 29.04138 34158 ft 460 kts 247°
2026-04-21 08:53 31.70853 29.00548 34151 ft 459 kts 259°
2026-04-21 08:53 31.70352 28.96789 34083 ft 462 kts 261°
2026-04-21 08:54 31.69170 28.89392 34097 ft 462 kts 257°
2026-04-21 08:54 31.67675 28.82067 34092 ft 462 kts 256°
2026-04-21 08:55 31.66094 28.74732 34094 ft 463 kts 256°
2026-04-21 08:55 31.64510 28.67443 34093 ft 463 kts 256°
2026-04-21 08:56 31.62911 28.60113 34096 ft 463 kts 256°
2026-04-21 08:56 31.61315 28.52819 34118 ft 463 kts 256°
2026-04-21 08:57 31.59718 28.45537 34115 ft 463 kts 256°
2026-04-21 08:57 31.58106 28.38212 34107 ft 463 kts 256°
2026-04-21 08:58 31.56498 28.30910 34117 ft 463 kts 255°
2026-04-21 08:58 31.54887 28.23608 34122 ft 463 kts 255°
2026-04-21 08:59 31.53271 28.16320 34124 ft 463 kts 255°
2026-04-21 08:59 31.51641 28.08995 34120 ft 464 kts 255°
2026-04-21 09:00 31.50014 28.01708 34124 ft 464 kts 255°
2026-04-21 09:00 31.48384 27.94428 34122 ft 464 kts 255°
2026-04-21 09:01 31.46768 27.87232 34123 ft 464 kts 255°
2026-04-21 09:01 31.45129 27.79949 34121 ft 464 kts 255°
2026-04-21 09:02 31.43476 27.72633 34114 ft 464 kts 255°
2026-04-21 09:02 31.41833 27.65376 34116 ft 464 kts 255°
2026-04-21 09:03 31.39340 27.54406 34120 ft 464 kts 255°
2026-04-21 09:03 31.37687 27.47159 34125 ft 464 kts 255°
2026-04-21 09:04 31.36012 27.39836 34124 ft 464 kts 255°
2026-04-21 09:04 31.34344 27.32559 34101 ft 465 kts 255°
2026-04-21 09:05 31.32681 27.25300 34115 ft 465 kts 255°
2026-04-21 09:05 31.32089 27.17834 34175 ft 462 kts 277°
2026-04-21 09:06 31.32825 27.14243 34181 ft 461 kts 289°
2026-04-21 09:06 31.33938 27.10702 34112 ft 463 kts 290°
2026-04-21 09:06 31.35889 27.03554 34129 ft 463 kts 285°
2026-04-21 09:07 31.37534 26.96253 34124 ft 464 kts 284°
2026-04-21 09:07 31.39103 26.88932 34122 ft 464 kts 284°
2026-04-21 09:08 31.40653 26.81632 34119 ft 464 kts 284°
2026-04-21 09:08 31.42203 26.74310 34119 ft 465 kts 284°
2026-04-21 09:09 31.43750 26.66979 34123 ft 465 kts 284°
2026-04-21 09:09 31.45292 26.59651 34119 ft 465 kts 284°
2026-04-21 09:10 31.46842 26.52264 34117 ft 465 kts 284°
2026-04-21 09:10 31.48372 26.44951 34117 ft 465 kts 284°
2026-04-21 09:11 31.49902 26.37610 34121 ft 465 kts 284°
2026-04-21 09:11 31.51427 26.30255 34120 ft 465 kts 283°
2026-04-21 09:12 31.52945 26.22906 34122 ft 465 kts 283°
2026-04-21 09:12 31.54439 26.15670 34129 ft 465 kts 283°
2026-04-21 09:13 31.55958 26.08294 34120 ft 465 kts 283°
2026-04-21 09:13 31.57464 26.00959 34116 ft 465 kts 283°
2026-04-21 09:14 31.58565 25.93453 34116 ft 465 kts 277°
2026-04-21 09:14 31.59419 25.85965 34121 ft 465 kts 278°
2026-04-21 09:15 31.60338 25.78463 34123 ft 465 kts 278°
2026-04-21 09:15 31.61269 25.70991 34119 ft 462 kts 278°
2026-04-21 09:16 31.62190 25.63575 34120 ft 457 kts 278°
2026-04-21 09:16 31.63095 25.56259 34121 ft 453 kts 278°
2026-04-21 09:17 31.63994 25.48963 34120 ft 450 kts 278°
2026-04-21 09:17 31.64879 25.41747 34121 ft 448 kts 278°
2026-04-21 09:18 31.65745 25.34649 34112 ft 446 kts 278°
2026-04-21 09:18 31.66615 25.27452 34116 ft 445 kts 278°
2026-04-21 09:19 31.67478 25.20302 34122 ft 443 kts 278°
2026-04-21 09:19 31.68339 25.13143 34121 ft 442 kts 278°
2026-04-21 09:20 31.69335 25.06042 34117 ft 442 kts 280°
2026-04-21 09:20 31.70395 24.98913 34121 ft 441 kts 279°
2026-04-21 09:21 31.71421 24.91825 34119 ft 441 kts 279°
2026-04-21 09:21 31.72432 24.84768 34116 ft 440 kts 279°
2026-04-21 09:22 31.73438 24.77716 34118 ft 440 kts 279°
2026-04-21 09:22 31.74450 24.70596 34121 ft 440 kts 279°
2026-04-21 09:23 31.75447 24.63547 34119 ft 440 kts 279°
2026-04-21 09:23 31.76431 24.56565 34125 ft 439 kts 279°
2026-04-21 09:24 31.77419 24.49522 34125 ft 439 kts 279°
2026-04-21 09:24 31.78408 24.42445 34120 ft 439 kts 279°
2026-04-21 09:25 31.79396 24.35349 34157 ft 439 kts 279°
2026-04-21 09:25 31.80370 24.28300 34116 ft 440 kts 279°
2026-04-21 09:26 31.81350 24.21174 34120 ft 439 kts 279°
2026-04-21 09:26 31.82316 24.14141 34122 ft 439 kts 279°
2026-04-21 09:27 31.83290 24.07022 34120 ft 440 kts 279°
2026-04-21 09:27 31.84256 23.99932 34120 ft 440 kts 279°
2026-04-21 09:28 31.85219 23.92829 34122 ft 440 kts 279°
2026-04-21 09:28 31.85952 23.85746 34123 ft 440 kts 275°
2026-04-21 09:29 31.86514 23.78623 34127 ft 440 kts 276°
2026-04-21 09:29 31.87122 23.71431 34123 ft 440 kts 276°
2026-04-21 09:30 31.87735 23.64305 34121 ft 440 kts 276°
2026-04-21 09:30 31.88346 23.57172 34119 ft 440 kts 276°
2026-04-21 09:31 31.88955 23.50013 34122 ft 440 kts 276°
2026-04-21 09:31 31.89563 23.42828 34119 ft 440 kts 276°
2026-04-21 09:32 31.90132 23.35793 34129 ft 427 kts 275°
2026-04-21 09:32 31.90588 23.30192 34130 ft 417 kts 275°
2026-04-21 09:33 31.91134 23.23534 34127 ft 407 kts 275°
2026-04-21 09:33 31.91674 23.16949 34124 ft 398 kts 275°
2026-04-21 09:34 31.92195 23.10563 34122 ft 389 kts 275°
2026-04-21 09:34 31.92704 23.04292 34118 ft 381 kts 275°
2026-04-21 09:35 31.93197 22.98218 33749 ft 379 kts 276°
2026-04-21 09:35 31.93465 22.95145 33179 ft 382 kts 276°
2026-04-21 09:35 31.93729 22.92064 32648 ft 381 kts 276°
2026-04-21 09:36 31.93959 22.89329 32192 ft 381 kts 275°
2026-04-21 09:36 31.94011 22.88693 32094 ft 380 kts 276°
2026-04-21 09:36 31.94258 22.85611 31561 ft 382 kts 275°
2026-04-21 09:36 31.94506 22.82446 30854 ft 387 kts 275°
2026-04-21 09:37 31.94751 22.79319 30316 ft 387 kts 275°
2026-04-21 09:37 31.94999 22.76169 29817 ft 386 kts 275°
2026-04-21 09:37 31.95246 22.73034 29332 ft 384 kts 275°
2026-04-21 09:37 31.95490 22.69930 28861 ft 382 kts 275°
2026-04-21 09:38 31.95731 22.66844 28396 ft 380 kts 275°
2026-04-21 09:38 31.95972 22.63758 27938 ft 377 kts 275°
2026-04-21 09:38 31.96211 22.60686 27546 ft 373 kts 275°
2026-04-21 09:38 31.96445 22.57667 27201 ft 367 kts 275°
2026-04-21 09:39 31.96674 22.54713 26840 ft 363 kts 275°
2026-04-21 09:39 31.96901 22.51759 26469 ft 358 kts 275°
2026-04-21 09:39 31.97123 22.48872 26099 ft 355 kts 275°
2026-04-21 09:39 31.97344 22.45996 25723 ft 351 kts 275°
2026-04-21 09:40 31.97559 22.43169 25349 ft 347 kts 275°
2026-04-21 09:40 31.97774 22.40355 24972 ft 344 kts 275°
2026-04-21 09:40 31.97988 22.37544 24592 ft 341 kts 275°
2026-04-21 09:40 31.98190 22.34863 24228 ft 338 kts 275°
2026-04-21 09:41 31.98389 22.32092 23763 ft 338 kts 273°
2026-04-21 09:41 31.98453 22.29341 23337 ft 336 kts 270°
2026-04-21 09:41 31.98468 22.26604 22884 ft 336 kts 270°
2026-04-21 09:41 31.98490 22.23843 22445 ft 335 kts 270°
2026-04-21 09:42 31.98524 22.21073 22012 ft 333 kts 271°
2026-04-21 09:42 31.98564 22.18380 21597 ft 331 kts 271°
2026-04-21 09:42 31.98606 22.15676 21183 ft 329 kts 271°
2026-04-21 09:42 31.98648 22.13026 20951 ft 321 kts 271°
2026-04-21 09:43 31.98690 22.10411 20707 ft 313 kts 271°
2026-04-21 09:43 31.98730 22.07887 20441 ft 308 kts 271°
2026-04-21 09:43 31.98769 22.05391 20157 ft 303 kts 271°
2026-04-21 09:43 31.98807 22.02908 19857 ft 299 kts 271°
2026-04-21 09:44 31.98844 22.00502 19555 ft 298 kts 271°
2026-04-21 09:44 31.98879 21.98019 19297 ft 307 kts 271°
2026-04-21 09:44 31.98915 21.95471 19173 ft 309 kts 271°
2026-04-21 09:44 31.98951 21.92943 19089 ft 311 kts 271°
2026-04-21 09:45 31.98988 21.90404 19019 ft 312 kts 271°
2026-04-21 09:45 31.99024 21.87849 18957 ft 312 kts 271°
2026-04-21 09:45 31.99060 21.85279 18901 ft 312 kts 271°
2026-04-21 09:45 31.99096 21.82750 18839 ft 311 kts 271°
2026-04-21 09:46 31.99132 21.80197 18771 ft 310 kts 271°
2026-04-21 09:46 31.99167 21.77666 18696 ft 305 kts 271°
2026-04-21 09:46 31.99212 21.75226 18590 ft 298 kts 271°
2026-04-21 09:46 31.99250 21.72900 18444 ft 292 kts 271°
2026-04-21 09:47 31.99279 21.70527 18273 ft 287 kts 271°
2026-04-21 09:47 31.99309 21.68172 18084 ft 283 kts 271°
2026-04-21 09:47 31.99337 21.65878 17858 ft 281 kts 271°
2026-04-21 09:47 31.99367 21.63494 17607 ft 280 kts 271°
2026-04-21 09:48 31.99395 21.61170 17360 ft 279 kts 271°
2026-04-21 09:48 31.99423 21.58847 17112 ft 277 kts 271°
2026-04-21 09:48 31.99450 21.56533 16865 ft 278 kts 271°
2026-04-21 09:48 31.99477 21.54169 16670 ft 289 kts 271°
2026-04-21 09:49 31.99505 21.51794 16527 ft 287 kts 271°
2026-04-21 09:49 31.99532 21.49439 16365 ft 284 kts 271°
2026-04-21 09:49 31.99557 21.47106 16186 ft 281 kts 271°
2026-04-21 09:49 31.99582 21.44805 16001 ft 279 kts 271°
2026-04-21 09:50 31.99607 21.42471 15809 ft 277 kts 271°
2026-04-21 09:50 31.99631 21.40164 15615 ft 276 kts 271°
2026-04-21 09:50 31.99654 21.37860 15450 ft 280 kts 271°
2026-04-21 09:50 31.99677 21.35545 15420 ft 283 kts 271°
2026-04-21 09:51 31.99682 21.33240 15343 ft 281 kts 270°
2026-04-21 09:51 31.99713 21.30932 15227 ft 281 kts 271°
2026-04-21 09:51 31.99742 21.28621 15096 ft 280 kts 270°
2026-04-21 09:51 31.99765 21.26374 14961 ft 271 kts 270°
2026-04-21 09:52 31.99786 21.24268 15180 ft 241 kts 270°
2026-04-21 09:52 31.99804 21.22381 15127 ft 224 kts 270°
2026-04-21 09:52 31.99821 21.20617 15078 ft 204 kts 270°
2026-04-21 09:52 31.99836 21.19028 14950 ft 185 kts 271°
2026-04-21 09:53 32.00112 21.17618 14639 ft 173 kts 296°
2026-04-21 09:53 32.00500 21.16247 13916 ft 186 kts 273°
2026-04-21 09:53 32.00232 21.14786 13187 ft 189 kts 242°
2026-04-21 09:53 31.99540 21.13487 12336 ft 194 kts 237°
2026-04-21 09:54 31.98814 21.12138 11399 ft 198 kts 237°
2026-04-21 09:54 31.98084 21.10781 10398 ft 204 kts 237°
2026-04-21 09:54 31.97333 21.09382 9299 ft 214 kts 237°
2026-04-21 09:54 31.96486 21.07928 8133 ft 222 kts 228°
2026-04-21 09:55 31.95255 21.06930 7097 ft 221 kts 202°
2026-04-21 09:55 31.93787 21.06681 6127 ft 216 kts 175°
2026-04-21 09:55 31.92444 21.07236 5542 ft 196 kts 150°
2026-04-21 09:55 31.91473 21.08267 4938 ft 186 kts 123°
2026-04-21 09:56 31.91096 21.09677 4333 ft 187 kts 91°
2026-04-21 09:56 31.91407 21.11199 3833 ft 199 kts 65°
2026-04-21 09:56 31.92072 21.12630 3509 ft 198 kts 58°
2026-04-21 09:56 31.92814 21.13897 3394 ft 178 kts 54°
2026-04-21 09:57 31.93434 21.15114 3102 ft 166 kts 60°
2026-04-21 09:57 31.94072 21.16284 2685 ft 176 kts 54°
2026-04-21 09:57 31.94748 21.17476 2358 ft 177 kts 59°
2026-04-21 09:57 31.95407 21.18684 2017 ft 176 kts 56°
2026-04-21 09:58 31.96111 21.19856 1601 ft 177 kts 52°
2026-04-21 09:58 31.96995 21.20696 1254 ft 165 kts
2026-04-21 09:58 31.98088 21.20369 922 ft 166 kts 329°
2026-04-21 09:58 31.99041 21.19720 754 ft 149 kts 328°
2026-04-21 09:59 31.99743 21.19239 767 ft 82 kts 328°
2026-04-21 09:59 32.00071 21.19019 780 ft 40 kts 330°
2026-04-21 09:59 32.00255 21.18895 782 ft 20 kts 330°
2026-04-21 09:59 32.00372 21.18816 784 ft 17 kts 329°
2026-04-21 10:00 32.00471 21.18747 787 ft 15 kts 328°
2026-04-21 10:00 32.00554 21.18688 789 ft 12 kts 329°
2026-04-21 10:00 32.00643 21.18632 791 ft 19 kts 339°
2026-04-21 10:00 32.00792 21.18651 792 ft 22 kts 15°
2026-04-21 10:01 32.00921 21.18692 795 ft 14 kts 15°
2026-04-21 10:01 32.00965 21.18771 795 ft 12 kts 115°
2026-04-21 10:01 32.00875 21.18846 793 ft 28 kts 150°
2026-04-21 10:01 32.00634 21.19003 787 ft 42 kts 153°
2026-04-21 10:02 32.00151 21.19333 776 ft 36 kts 147°
2026-04-21 10:02 31.99995 21.19441 774 ft 19 kts 150°
2026-04-21 10:02 31.99817 21.19562 767 ft 34 kts 150°
2026-04-21 10:03 31.99641 21.19679 764 ft 20 kts 151°
2026-04-21 10:03 31.99614 21.19788 763 ft 17 kts 60°
2026-04-21 10:03 31.99679 21.19886 764 ft 10 kts
2026-04-21 10:03 31.99756 21.19853 766 ft 12 kts 342°
2026-04-21 10:04 31.99811 21.19903 767 ft 11 kts 56°
2026-04-21 10:04 31.99852 21.20001 767 ft 7 kts 115°
2026-04-21 10:04 31.99843 21.20011 767 ft 0 kts 149°
2026-04-21 10:04 31.99826 21.20023 767 ft 2 kts 149°
2026-04-21 10:05 31.99824 21.20024 767 ft 0 kts 149°